Weather in Jhansi

India     25°26′22″N   78°34′15″E
temp.,
°C
wind,
m/s
gust,
m/s
humid.,
%
clouds,
%
prec.,
mm/h
press.,
hPa
HPBL,
m
15 may, sat
sat1523:30+34ene592311 0.0 1002486
02:30+32ene23285 0.0 100154
05:30+30e223110 0.0 100331
08:30+35e45250 0.0 1004678
11:30+40e44162 0.0 10033060
14:30+41ne331367 0.0 10004331
17:30+41ene2312100 0.0 9994644
20:30+37ne5921100 0.0 1001689
16 may, sun
sun1623:30+34ne3625100 0.0 1004215
02:30+34ne382567 0.0 1002311
05:30+32n342779 0.0 100370
08:30+36ne342656 0.0 1005770
11:30+39nne222095 0.0 10041669
14:30+42ssw431480 0.0 10013720
17:30+41ssw6416100 0.0 10002284
20:30+38wsw2420100 0.0 1003179
17 may, mon
mon1723:30+36sw352559 0.0 1003145
02:30+34w3631100 0.0 1002133
05:30+33w3631100 0.0 1003116
08:30+37wnw782199 0.0 10051098
11:30+38nnw441997 0.0 10051192
14:30+39nnw431745 0.0 10032531
17:30+38n7618100 0.0 10021486
20:30+35n252364 0.0 1004180
18 may, tue
tue1823:30+34ssw473499 0.0 1004321
02:30+32w453597 0.0 1003204
05:30+30wsw354398 0.1 1004207
08:30+34wnw442992 0.0 1006679
11:30+37nnw321997 0.2 10051917
14:30+40wnw3318100 0.0 10022975
17:30+40nnw431958 0.0 10002704
20:30+35ne472358 0.1 1004620
19 may, wed
wed1923:30+34ne252494 0.1 1003230
02:30+32ne2225100 0.0 100222
05:30+30n233464 0.4 100367
08:30+33n222955 0.5 1005759
11:30+37e24225 0.6 10032076
14:30+40sw4723100 0.0 10003093
17:30+37wnw753399 1.3 999991
20:30+34nne44413 1.3 1000240